Voltar ao catálogo

COSMOS 1275 DEB

AtivoPO
NORAD 12667·DEBRIS·🇷🇺 Russia

Lançado Jun 4, 1981 de Plesetsk Cosmodrome

Loading…

Próximas Passagens (próximas 24 horas)

TLE

AtualizadoSource: Space-Track

Época: Sep 14, 2026, 21:17 UTC

1 12667U 81053X   26257.88742141  .00000355  00000-0  30546-3 0  9990
2 12667  82.8377 309.3864 0035308 173.5626   4.8376 13.83695966266931

Acompanhe COSMOS 1275 DEB em tempo real com AllMySat

Download on the App Store